Location: Gradaro
(45.0833°N, 10.8833°E)
Time: 23:06:19
(UTC+00:00)

FENGYUN 1C DEB - Pass Details

Date: 29 June 2021
Orbit: 744 x 851 km, 99.4° (Epoch: 27 July)

Event Time Altitude Azimuth Distance (km) Brightness Sun altitude
Exits shadow 23:29:35 39° 142° (SE) 1,204 ? -21.7°
Maximum altitude 23:31:32 69° 72° (ENE) 865 ? -21.7°
Drops below altitude 10° 23:36:44 10° 349° (N) 2,368 ? -21.6°
Sets 23:39:02 0° 348° (NNW) 3,285 ? -21.6°
